Location: Alfords
(31.4624°N, 83.9238°W)
Time: 21:39:40
(UTC+00:00)

Envisat - Pass Details

Date: 18 September 2021
Orbit: 764 x 766 km, 98.2° (Epoch: 15 October)

Event Time Altitude Azimuth Distance (km) Brightness Sun altitude
Rises 10:02:02 0° 24° (NNE) 3,232 6.8 -17.6°
Reaches altitude 10° 10:04:33 10° 33° (NNE) 2,302 6.1 -17.1°
Maximum altitude 10:09:08 34° 98° (E) 1,249 4.7 -16.2°
Drops below altitude 10° 10:13:40 10° 162° (SSE) 2,290 5.5 -15.2°
Sets 10:16:10 0° 172° (S) 3,212 6.2 -14.7°
